Regional Weather Roundup
Issued by NWS Grand Forks, ND

Home | Current Version | Previous Version | Text Only | Print | Product List | Glossary Off
Versions: 1 2 3 4 5 6 7 8 9 10 11 12 13 14 15 16 17 18 19 20 21 22 23 24 25 26 27 28 29 30 31 32 33 34 35 36 37 38 39 40 41 42 43 44 45 46 47 48 49 50

000
ASUS43 KFGF 230510
RWRFGF
PRAIRIE TO PINES  WEATHER ROUNDUP
NATIONAL WEATHER SERVICE EASTERN NORTH DAKOTA/GRAND FORKS ND
1200 AM CDT MON OCT 23 2017

 **SATELLITE DATA USED TO AUGMENT SKY COVER AT AUTOMATED STATIONS**
 *****  WEATHER ACROSS EASTERN NORTH DAKOTA  *****

CITY           SKY/WX    TMP DP  RH WIND       PRES   REMARKS
GRAND FORKS    CLOUDY    54  33  45 S13       29.57F
GRAND FRKS AFB MOCLDY    55  34  44 SW14G21   29.56F
DEVILS LAKE    FAIR      54  42  64 W18       29.58R
FARGO          LGT RAIN  57  35  43 S13       29.64F
WAHPETON ARPT  NOT AVBL
$$

 ***** WEATHER ACROSS CENTRAL AND WESTERN NORTH DAKOTA  *****

CITY           SKY/WX    TMP DP  RH WIND       PRES   REMARKS
BISMARCK       FAIR      56  41  57 W18G26    29.74R
MINOT          FAIR      53  34  48 W23G33    29.65R
JAMESTOWN      FAIR      56  42  59 W15       29.65R
MINOT AFB      CLOUDY    51  34  52 NW18G28   29.64R
GARRISON         N/A     49  43  80 W18       29.70R
WILLISTON      PTCLDY    50  37  62 MISG      29.77R
DICKINSON      MOCLDY    51  32  48 W20G29    29.81R
HETTINGER      FAIR      44  38  79 W14       29.89R
$$

 *****  OTHER AIRPORT OBSERVATIONS IN OUR AREA  *****

CITY           SKY/WX    TMP DP  RH WIND       PRES   REMARKS
WALHALLA       FAIR     N/A N/A N/A SW12      29.51F
GRAFTON AIRPOR NOT AVBL
VALLEY CITY AR NOT AVBL
CANDO          FAIR      48  43  81 W15       29.59R
CAVALIER APRT  FAIR      50  41  71 SW9       29.52F
GWINNER        PTCLDY    57  34  41 SW16G23   29.68S
SHEYENNE NWR     N/A     59  33  37 SW15      29.95
ROLLA          FAIR      48  41  76 W14G20    29.56R
 ***** THE ABOVE OBSERVATIONS ARE NON NWS ARE NOT QUALITY
       CONTROLLED AND MAY MIS-REPORT RAIN FOR SNOW...
$$

  *****  WEATHER ACROSS NORTHERN MINNESOTA  *****

CITY           SKY/WX    TMP DP  RH WIND       PRES   REMARKS
FLAG ISLAND    CLOUDY    52  43  71 S9        29.57S
WARROAD        MOCLDY    52  39  62 CALM      29.59F
ROSEAU         CLOUDY    52  43  71 S8        29.59S
HALLOCK        MOCLDY    46  39  76 S9        29.54F
THF RVR FALLS  MOCLDY    54  32  43 S13       29.61F
BAUDETTE       MOCLDY    54  38  54 S10       29.62F
WASKISH        MOCLDY    55  34  44 S8        29.64F
CROOKSTON      FAIR      54  32  43 S13       29.60F
STEPHEN NDAWN    N/A     52  36  54 S9          N/A
GREENBUSH NDAW   N/A     50  41  71 S7          N/A
$$
  *****  WEATHER ACROSS CENTRAL AND WEST MINNESOTA  *****

CITY           SKY/WX    TMP DP  RH WIND       PRES   REMARKS
FOSSTON        FAIR      54  28  37 S15       29.64F
BEMIDJI        MOCLDY    55  32  42 S12       29.67F
PARK RAPIDS    MOCLDY    54  35  48 S9        29.70F
ELBOW LAKE     CLOUDY    55  37  50 S12       29.74F
WADENA         FAIR      54  36  50 S9        29.72F
DETROIT LAKES  FAIR      55  32  41 S10       29.69F
MOORHEAD       MOCLDY    55  36  47 S8        29.66F
FERGUS FALLS   MOCLDY    57  37  47 S14G20    29.71F
MORRIS MN      FAIR      54  36  50 S9        29.75S
STAPLES        FAIR      52  34  50 S8        29.75F
$$
  *****  WEATHER ELSEWHERE ACROSS MINNESOTA  *****

CITY           SKY/WX    TMP DP  RH WIND       PRES   REMARKS
DULUTH         CLOUDY    52  32  46 S12       29.82F
INTRNTL FALLS  CLOUDY    55  32  41 S7        29.66F
ELY            MOCLDY    52  28  40 S9        29.78F
CLOQUET        CLOUDY    54  28  37 S8        29.82F
WHEATON        MOCLDY    55  36  47 S13       29.74F
BRAINERD       MOCLDY    56  34  43 S10       29.77F
HIBBING        CLOUDY    49  31  49 SE8       29.76F
ALEXANDRIA     CLOUDY    55  36  48 S12       29.76F
SAINT CLOUD    CLOUDY    54  36  50 S12       29.83F
MINNEAPOLIS    CLOUDY    56  33  42 S13       29.88F
$$

  *****  WEATHER ACROSS SOUTH DAKOTA  *****

CITY           SKY/WX    TMP DP  RH WIND       PRES   REMARKS
SIOUX FALLS    FAIR      55  33  43 SW10      29.83F
BROOKINGS      FAIR      52  33  48 S12       29.81F
WATERTOWN      CLOUDY    52  38  58 S7        29.79R
HURON          FAIR      55  36  48 W3        29.80R
SISSETON         N/A     62  36  37 SW20G31   29.71F
ABERDEEN       FAIR      59  40  49 W23G31    29.77S
MITCHELL       FAIR      54  35  48 S9        29.79F
PIERRE         FAIR      53  45  74 NW13      29.86R
MOBRIDGE       FAIR      52  46  80 W8        29.80R
RAPID CITY     CLOUDY    57  32  38 NW22G38   29.99R
$$

  *****  SOME WEATHER IN NEARBY STATES *****

CITY           SKY/WX    TMP DP  RH WIND       PRES   REMARKS
GLASGOW MT     LGT RAIN  47  37  68 NW30G36   29.93R
GREAT FALLS MT FAIR      45  22  40 W20G28    30.14R
CHEYENNE WY    FAIR      54  26  34 VRB3      30.18R
SCOTTSBLUFF NE FAIR      62  30  29 W20       30.03R
OMAHA NE       FAIR      50  36  58 SE12      29.96F
DES MOINES IA  FAIR      49  41  74 S9        30.00F
DAVENPORT IA   FAIR      48  48 100 CALM      30.05S
CHICAGO IL     LGT RAIN  52  49  89 N7        29.99F
EAU CLAIRE WI  FAIR      47  41  80 S12       29.93F
LA CROSSE WI   FAIR      49  45  86 S8        29.99F
$$

  *****  SOME NATIONAL WEATHER *****

CITY           SKY/WX    TMP DP  RH WIND       PRES   REMARKS
LA GUARDIA NY  MOCLDY    63  58  83 SE3       30.35F
RALEIGH NC     MOCLDY    64  62  93 SE6       30.26F
ATLANTA GA     DRIZZLE   67  67 100 SE8       30.11F FOG
NEW ORLEANS LA MOCLDY    66  64  93 NW9       30.04F
OKLAHOMA CITY  FAIR      48  44  86 S5        30.12F
ALBUQUERQUE NM FAIR      58  24  27 NW8       30.37R
SALT LAKE CITY MOCLDY    57  33  40 S3        30.37R
LOS ANGELES CA FAIR      71  56  58 E5        30.06S
BOISE ID       FAIR      51  46  83 NW3       30.44R
SEATTLE WA     MOCLDY    52  48  86 S8        30.44R
$$

*** WEATHER ACROSS MANITOBA...SASKATCHEWAN AND ONTARIO ***
                ***ONTARIO***

CITY           SKY/WX    TMP DP  RH WIND       PRES   REMARKS
GERALDTON      CLEAR     39  39 100 S7        29.82F
THUNDER BAY    CLOUDY    37  36  93 W3        29.84F
SIOUX LOOKOUT  LGT RAIN  50  34  53 S10       29.65F
TORONTO        CLOUDY    61  54  77 SE3       30.09S
BIG TROUT LK   CLOUDY    43  36  75 W21G36    29.46R
PICKLE LAKE    NOT AVBL
DRYDEN         CLOUDY    52  36  54 SW9       29.63F
KENORA         CLOUDY    52  41  66 S9        29.58F
$$
                *** MANITOBA***

CITY           SKY/WX    TMP DP  RH WIND       PRES   REMARKS
BRANDON        CLEAR     34  32  93 NW6       29.51R
DAUPHIN        CLOUDY    43  41  93 W7        29.58R
ISLAND LAKE    CLOUDY    39  34  81 W16G24    29.48R
PILOT MOUND      N/A     41  36  81 SW9         N/A
THE PAS        CLOUDY    37  32  81 NW10      29.61R
THOMPSON       FLURRIES  34  32  93 W12       29.44R
WINNIPEG       CLOUDY    48  37  66 S6        29.53S
LYNN LAKE      FLURRIES  32  30  93 NW12G17   29.51R WCI  23
CHURCHILL      LGT SNOW  32  30  93 NW33G46   28.97R VSB 1   WCI  17
GILLAM         LGT SNOW  34  32  93 W21G32    29.27R WCI  22
$$
                ***SASKATCHEWAN***

CITY           SKY/WX    TMP DP  RH WIND       PRES   REMARKS
ESTEVAN        PTCLDY    43  34  70 W18G25    29.70R
KINDERSLEY     CLOUDY    34  32  93 SW6       29.87R
LLOYDMINSTER   MOCLDY    37  34  87 W13       29.80R
PRINCE ALBERT  CLOUDY    34  32  93 NW6       29.75R FOG
REGINA         CLOUDY    36  32  87 W9        29.75R
YORKTON        PTCLDY    39  37  93 NW13      29.65R
N. BATTLEFORD  MOCLDY    39  32  75 W6        29.81R
LA RONGE       MOCLDY    32  30  93 W8        29.70R WCI  25
SASKATOON      MOCLDY    36  34  93 W9        29.78R
SWIFT CURRENT  CLEAR     41  30  65 NW18G24   29.84R
$$
NOTE: THESE ARE AUTOMATED STATIONS WITH LIMITED QUALITY CONTROL
      "FAIR" INDICATES FEW OR NO CLOUDS BELOW 12,000 FEET WITH NO
      SIGNIFICANT WEATHER AND/OR OBSTRUCTIONS TO VISIBILITY.
      SKY/WX - SKY CONDITION AND SIGNIFICANT WEATHER.
      TMP - AIR TEMPERATURE.    DP   - DEWPOINT TEMPERATURE.
      RH  - RELATIVE HUMIDITY.  PRES - PRESSURE.
      HX  - HEAT INDEX.         WCI  - WIND CHILL INDEX.
$



USA.gov is the U.S. government's official web portal to all federal, state and local government web resources and services.